Location: Sternwarte Stuttgart
(48.7824°N, 9.1965°E)
Time: 00:24:36
(UTC+00:00)

Daily predictions for brighter satellites

Satellite Brightness Start Highest point End
(mag) Time Altitude Azimuth Time Altitude Azimuth Time Altitude Azimuth
ATLAS 3B R/B 4.3 02:24:08 32° ENE 02:24:08 32° ENE 02:28:12 10° NE
CENTAUR R/B 4.3 02:50:44 30° NNE 02:51:05 30° NNE 02:58:29 10° ENE
Cosmos 2333 Rocket 3.9 03:01:13 29° ENE 03:01:13 29° ENE 03:04:31 10° NE
SL-16 R/B 4.4 03:03:55 17° NNE 03:03:55 17° NNE 03:05:10 10° NNE
Cosmos 2278 Rocket 4.2 03:10:43 20° NNE 03:11:29 21° NE 03:15:39 10° E
USA 267 4.0 03:15:23 10° ENE 03:20:58 43° NNE 03:20:58 43° NNE
Lacrosse 5 rocket 3.6 03:40:21 24° ESE 03:40:21 24° ESE 03:43:07 10° ENE
NOSS 3-1 (C) 4.3 03:43:27 37° NNE 03:43:27 37° NNE 03:47:32 10° NE
NOSS 3-1 (A) 3.6 03:45:54 56° NE 03:45:54 56° NE 03:50:46 10° NE
H-2A R/B 3.3 03:40:29 10° NNE 03:45:03 37° E 03:49:38 10° SSE
Cosmos 1464 Rocket 4.0 03:47:24 41° S 03:49:43 78° E 03:56:00 10° NNE
CZ-4C R/B 3.9 03:48:39 26° N 03:50:46 31° NNE 03:57:36 10° E
Cosmos 2360 Rocket 2.9 03:56:59 42° N 03:56:59 42° N 04:00:46 10° NNE
Cosmos 2219 Rocket 2.4 03:56:12 57° SSE 03:57:10 68° ESE 04:02:49 10° NNE
USA 281 4.1 03:53:23 10° NE 03:59:43 47° ESE 04:06:00 10° S
BREEZE-M DEB (TANK) 3.8 03:59:29 81° NW 03:59:44 86° N 04:13:23 10° E
Cosmos 1943 Rocket 4.1 04:01:03 16° N 04:04:05 24° NE 04:08:28 10° E
BREEZE-M R/B 4.4 04:05:49 56° WSW 04:06:38 59° SW 04:11:44 10° SE
Cosmos 1452 Rocket 4.0 04:07:27 40° N 04:09:03 56° ENE 04:14:11 10° SE
COSMOS 2455 4.3 04:13:19 23° SSW 04:13:19 23° SSW 04:15:44 10° S
ATLAS CENTAUR R/B 3.9 04:13:48 10° NNE 04:13:48 10° NNE 04:13:49 10° NNE
ATLAS 3B R/B 2.9 04:11:24 54° NW 04:11:53 55° NW 04:19:20 10° NE
CZ-3 R/B 4.3 04:01:01 18° SW 04:12:16 28° SSW 04:19:44 10° SE
ARIANE 5 R/B 2.9 04:07:21 10° NNE 04:12:33 66° ESE 04:17:44 10° S
Cosmos 2322 Rocket 3.3 04:18:34 31° N 04:18:34 31° N 04:22:00 10° NNE
IRS-P3 Rocket 4.4 04:11:25 10° NNE 04:16:41 88° WNW 04:19:05 33° SSW
Meteor 2-2 Rocket 4.2 04:19:29 45° NNW 04:21:25 73° W 04:27:25 10° S
Cosmos 2034 Rocket 3.9 04:15:06 10° S 04:21:27 90° W 04:27:46 10° N
BREEZE-M DEB (TANK) 2.5 04:26:22 72° ENE 04:26:22 72° ENE 04:32:06 10° E
Cosmos 1782 4.0 04:31:03 31° S 04:31:03 31° S 04:33:10 10° S
COSMO-SKYMED 1 2.5 04:25:43 10° SSE 04:30:02 85° ENE 04:30:47 61° N
IRS-1C 4.0 04:28:23 10° NNE 04:33:44 80° WNW 04:39:03 10° SSW
Cosmos 1048 Rocket 4.2 04:31:16 10° SSW 04:36:21 70° ESE 04:41:28 10° NNE
Cosmos 1331 Rocket 4.1 04:35:09 29° NNW 04:37:52 77° ENE 04:43:03 10° SSE
Meteor 1-26 Rocket 4.4 04:32:43 10° N 04:38:44 84° ENE 04:44:46 10° SSE
Cosmos 2026 Rocket 4.0 04:32:43 10° N 04:39:10 90° SE 04:45:30 10° S
COSMOS 2428 2.8 04:36:53 10° SSW 04:42:35 79° ESE 04:48:19 10° NNE
CENTAUR R/B 3.6 04:37:54 22° NNW 04:43:26 60° NE 04:52:24 10° ESE
Cosmos 2333 Rocket 2.6 04:43:16 42° WNW 04:43:27 42° NW 04:48:56 10° NNE
SL-16 R/B 3.7 04:45:48 20° NNW 04:45:48 20° NNW 04:48:40 10° N
Cosmos 2195 Rocket 4.3 04:40:06 10° NNW 04:46:15 70° W 04:52:19 10° S
Cosmos 1825 Rocket 3.4 04:42:53 10° S 04:47:15 86° W 04:51:37 10° N
Cosmos 1544 4.4 04:44:19 10° SSE 04:47:15 35° E 04:50:14 10° NNE
ARGOS 3.6 04:42:14 10° NNE 04:47:36 61° E 04:52:54 10° S
SL-19 R/B 4.0 04:43:38 10° NNE 04:49:07 74° WNW 04:54:22 10° SSW
BREEZE-M DEB (TANK) 4.3 04:55:51 13° SSW 04:55:51 13° SSW 04:57:30 10° S
Nadezhda 4 Rocket 4.4 04:54:40 31° NW 04:56:25 38° W 05:02:00 10° SSW
Cosmos 2278 Rocket 2.2 04:52:35 21° NNW 04:56:26 85° ENE 05:02:06 10° SSE
Cosmos 1092 Rocket 3.9 04:50:54 10° NNW 04:57:03 67° W 05:03:15 10° S
SeaSat 1 4.1 04:52:57 10° ESE 04:57:06 28° NE 05:01:16 10° NNW
ERS-2 3.3 04:57:13 10° NNE 04:59:57 34° E 05:02:40 10° SSE
CZ-2D R/B 3.3 04:58:14 10° N 05:02:06 57° WNW 05:05:56 10° SSW
CZ-2D R/B 4.2 05:00:04 10° NNE 05:03:37 46° E 05:07:08 10° S
USA 267 3.5 04:57:32 10° ESE 05:04:01 66° NNE 05:08:18 23° NW
IRS-P3 4.1 05:00:00 10° N 05:05:12 55° WNW 05:10:23 10° SW
Cosmos 2237 Rocket 3.2 04:59:56 10° S 05:05:22 50° ESE 05:10:49 10° NE
Cosmos 1634 Rocket 3.9 05:03:24 10° SSW 05:09:36 77° W 05:15:53 10° N
SJ-6F 4.3 05:06:58 10° NNE 05:11:07 79° WNW 05:15:12 10° SSW
Cosmos 1076 Rocket 4.0 05:08:45 10° S 05:12:59 62° E 05:17:17 10° NNE
CZ-2C R/B 3.9 05:11:43 10° NNE 05:15:21 44° E 05:19:00 10° S
Cosmos 1110 Rocket 4.2 05:12:13 22° NW 05:15:24 50° WSW 05:20:30 10° S
Cosmos 2322 3.8 05:09:56 10° SW 05:15:28 52° NW 05:21:01 10° NNE
Cosmos 1500 3.6 05:12:00 10° S 05:15:28 57° E 05:18:58 10° NNE
SJ-12 3.8 05:11:38 10° N 05:15:37 59° WNW 05:19:35 10° SSW
IKONOS-2 4.4 05:12:17 10° SSE 05:16:28 86° ENE 05:20:40 10° NNW
Lacrosse 5 rocket 1.4 05:15:29 26° WSW 05:17:50 69° NNW 05:22:13 10° NE
SKYMED 2 4.3 05:14:22 10° SSW 05:18:17 32° W 05:19:24 28° WNW
Cosmos 2221 2.7 05:17:58 20° NNW 05:20:33 44° W 05:24:36 10° SSW
Meteor 2-3 Rocket 4.0 05:15:26 10° SW 05:20:43 43° WNW 05:26:03 10° N
Cosmos 2285 Rocket 4.1 05:16:07 10° SSW 05:22:27 86° ESE 05:28:54 10° NNE
H-2A R/B 2.5 05:20:02 10° N 05:24:24 33° WNW 05:28:47 10° SW
SL-08 RB Rocket 3.6 05:20:22 10° N 05:24:59 79° WNW 05:29:37 10° SSW
SAR-Lupe-2 4.0 05:22:01 10° NNE 05:25:36 65° ESE 05:29:09 10° S
USA 229 DEB 3.7 05:20:10 12° WSW 05:25:52 55° NW 05:32:41 10° NE
USA 229 3.7 05:20:09 12° WSW 05:25:55 56° NW 05:32:45 10° NE
Cosmos 494 Rocket 4.4 05:25:08 10° SW 05:29:52 37° WNW 05:34:39 10° N
Cosmos 2279 Rocket 3.9 05:26:28 10° SSW 05:32:43 78° W 05:39:01 10° N
Cosmos 1302 Rocket 3.9 05:29:44 10° NNW 05:34:56 76° WSW 05:40:08 10° SSE
SL-08 R/B 4.1 05:32:01 10° SSW 05:36:08 30° W 05:39:21 15° NW
NOSS 3-1 (A) 4.3 05:33:21 19° WNW 05:36:19 30° NNW 05:42:04 10° NE
Cosmos 2360 Rocket 3.6 05:38:47 16° NW 05:40:09 18° NW 05:43:56 10° N
CZ-4C R/B 3.1 05:33:46 12° NW 05:40:18 75° NE 05:48:50 10° SE
Cosmos 1953 Rocket 4.0 05:36:30 10° SW 05:40:43 41° WNW 05:44:59 10° N
Cosmos 2219 Rocket 3.1 05:38:00 15° W 05:41:37 27° NW 05:46:25 10° NNE
Meteor 1-31 Rocket 3.5 05:40:25 10° NNE 05:44:09 57° E 05:47:54 10° S
USA 281 3.5 05:38:02 10° NNE 05:44:10 44° NW 05:50:17 10° WSW
CZ-3B R/B 4.2 05:40:21 16° WNW 05:45:03 78° SSW 06:09:01 10° SE
Cosmos 1862 4.0 05:41:44 10° SW 05:45:08 29° WNW 05:48:34 10° N
Cosmos 1943 Rocket 2.1 05:42:53 10° NNW 05:48:26 77° WSW 05:53:56 10° SSE
Cosmos 1151 Rocket 4.3 05:44:37 10° N 05:48:44 42° ENE 05:52:50 10° SSE
Intercosmos 25 Rocket 3.5 05:46:24 10° S 05:49:53 83° E 05:54:59 10° N
ARIANE 5 R/B 3.7 05:47:14 10° N 05:51:10 22° WNW 05:55:06 10° WSW
Cosmos 1992 Rocket 4.1 05:48:10 10° NNW 05:53:26 79° ENE 05:58:38 10° SSE
PSLV R/B 4.0 05:49:56 10° N 05:53:54 37° WNW 05:57:51 10° SW
SJ-7 4.4 05:52:47 10° N 05:56:50 59° WNW 06:00:51 10° SSW
CZ-4C R/B 3.6 05:53:30 10° SSE 05:57:40 78° ENE 06:01:55 10° NNW
Cosmos 2151 3.4 05:54:20 10° SW 05:58:14 37° WNW 06:02:12 10° N
Geosat 4.4 05:54:18 10° NNE 05:58:58 39° NW 06:03:36 10° WSW
Cosmos 1655 Rocket 4.1 05:54:15 10° N 06:00:36 84° E 06:06:57 10° S
SL-16 R/B 3.5 05:56:50 10° S 06:02:12 45° ESE 06:07:36 10° NE
Cosmos 2322 Rocket 4.0 06:00:24 10° NW 06:02:24 12° NNW 06:04:36 10° N
ATLAS 3B R/B 3.9 05:58:40 12° WNW 06:04:21 28° NNW 06:10:48 10° NE
COSMO-SKYMED 1 4.5 06:05:22 10° WSW 06:06:50 11° W 06:07:59 11° WNW
NOSS 3-2 (C) 4.3 06:02:42 10° NW 06:09:58 72° NE 06:18:33 10° SE
Cosmos 1437 Rocket 3.5 06:07:49 10° SW 06:11:01 27° WNW 06:14:13 10° N
USA 215 3.3 06:04:49 10° NE 06:11:23 89° NNW 06:17:55 10° WSW
Helios 1B rocket 3.0 06:10:02 10° N 06:13:38 33° WNW 06:17:13 10° SW
CORIOLIS 4.2 06:09:56 10° NNE 06:15:22 78° WNW 06:20:48 10° SSW
Cosmos 614 Rocket 4.0 06:10:37 10° SSW 06:15:50 87° WNW 06:21:05 10° NNE
CZ-4B R/B 3.9 06:12:35 10° N 06:16:30 64° WNW 06:20:35 10° SSW
Cosmos 1378 4.3 06:14:39 10° NW 06:17:17 20° W 06:19:55 10° SW
Cosmos 2369 Rocket 3.0 06:11:46 10° NNW 06:17:20 51° NE 06:22:52 10° SE
Cosmos 1666 3.2 06:16:32 10° SW 06:19:43 31° WNW 06:22:56 10° N
Cosmos 1544 4.5 06:19:04 10° WSW 06:20:56 14° WNW 06:22:48 10° NNW
Cosmos 1980 4.0 06:19:00 10° SW 06:24:26 46° NW 06:29:54 10° NNE
